Wind_Speed
16 16 15 15 15 15 14 14 15 15 15 15 15 15 16 16 16 16 16 15 15 15 16 16 16 16 16 15 15 15 14 14 13 13 14 14 14 14 15 14 15 15 15 15 15 15 16 16 15
17 17 17 16 16 15 15 16 15 15 16 16 16 17 18 17 17 17 17 17 17 16 17 17 16 16 16 16 15 15 14 14 13 14 14 14 14 15 15 16 16 16 17 17 17 16 16 17 17
17 18 18 17 17 16 16 16 15 15 16 16 17 18 19 18 18 18 19 18 18 18 17 18 17 16 15 15 15 15 14 14 14 14 14 14 15 15 16 16 17 17 18 18 19 18 17 17 18
17 18 18 18 17 17 18 18 17 16 16 16 18 18 18 19 19 19 20 20 19 19 19 19 18 17 17 16 16 16 15 15 15 15 15 15 16 16 16 17 18 18 19 19 20 21 20 19 19
18 18 19 19 18 18 19 19 19 18 17 17 18 18 18 19 19 20 20 20 20 21 21 20 20 19 19 18 17 17 17 17 17 16 17 17 17 17 17 18 19 20 20 20 21 21 22 22 21
19 19 20 19 19 19 20 20 19 20 19 19 19 19 18 19 20 20 21 21 20 21 21 21 21 21 21 20 20 19 19 19 19 19 19 19 19 19 19 20 20 21 21 22 22 22 23 23 24
21 21 21 21 21 21 21 22 22 21 21 21 20 20 19 19 20 21 22 21 21 21 21 21 21 21 21 21 21 20 20 21 21 21 21 21 21 21 21 20 21 21 22 23 23 23 23 24 25
22 22 22 22 22 22 22 23 22 23 22 22 22 22 20 20 21 21 22 22 22 21 21 22 21 22 22 22 22 21 22 22 22 22 22 22 22 22 22 22 22 23 23 23 24 25 25 25 25
23 24 23 23 24 23 24 24 24 24 24 23 23 23 22 22 22 22 22 22 23 23 23 23 23 23 23 23 23 23 24 24 24 24 24 24 24 24 24 23 24 24 24 24 24 25 26 26 26
24 24 23 23 24 24 24 25 25 25 25 25 25 24 24 23 23 23 24 24 24 24 24 24 25 25 25 26 25 25 26 26 26 26 26 26 25 26 26 25 26 27 27 26 26 27 27 28 28
24 24 24 25 25 25 26 27 26 27 27 26 26 26 26 25 25 25 25 25 26 26 26 26 26 27 27 27 27 27 28 28 27 28 28 28 28 28 28 27 27 27 28 28 28 28 29 30 30
25 25 26 26 26 27 28 28 28 28 27 27 27 26 26 27 27 27 27 27 27 27 28 28 28 28 29 29 29 29 29 29 29 29 30 30 30 30 30 30 29 29 29 30 30 30 31 31 32
26 26 27 27 27 29 29 29 29 29 29 29 28 28 28 28 29 29 29 29 29 29 30 30 30 30 30 30 30 30 30 31 31 31 31 32 32 31 31 31 31 31 31 31 31 32 33 32 32
27 28 28 28 28 28 29 29 30 29 29 29 29 29 29 29 30 30 30 29 30 30 31 32 32 32 32 32 32 32 32 32 33 33 33 33 33 33 33 33 33 33 33 33 33 33 33 32 32
29 30 30 29 30 29 29 30 30 29 30 30 30 31 31 31 31 31 31 31 31 31 32 32 33 33 34 34 34 34 34 34 34 34 34 34 34 34 34 34 35 35 35 35 35 34 34 33 33
30 30 30 29 30 30 30 29 29 30 31 32 32 32 32 33 32 32 33 33 33 33 33 34 35 35 35 36 36 36 36 36 35 35 36 36 36 36 35 35 36 36 36 36 36 36 35 35 34
31 31 30 30 30 30 30 30 30 31 33 33 33 34 34 34 33 33 34 34 34 34 35 35 36 37 37 37 37 37 37 37 37 37 37 37 37 37 37 37 37 37 37 37 37 37 37 37 37
31 32 31 31 31 31 31 31 31 32 33 34 34 34 35 35 35 35 35 35 36 36 36 37 37 37 38 39 39 39 38 38 38 38 39 39 39 38 38 38 38 38 38 38 38 38 37 37 37
32 32 32 32 32 33 33 32 32 33 34 34 35 35 35 35 36 36 36 37 37 37 37 38 38 38 39 40 40 40 40 40 40 40 40 41 40 40 40 39 39 39 39 39 39 38 38 37 37
33 33 33 33 34 35 35 34 34 35 35 35 36 36 36 36 37 38 37 38 38 38 39 39 39 39 40 41 41 41 42 41 41 41 41 41 42 41 40 40 40 40 40 40 39 39 38 38 38
34 33 34 34 34 36 36 36 35 35 36 36 36 37 37 38 38 38 39 39 39 39 39 40 40 40 41 42 42 42 42 42 42 42 43 43 42 42 42 42 42 41 41 41 40 40 39 39 38
35 35 35 36 36 36 36 37 35 35 36 37 37 37 38 39 39 39 39 40 40 40 40 40 40 40 41 41 42 42 41 42 42 42 43 43 43 42 42 42 43 43 42 41 41 40 40 40 40
35 36 37 37 38 38 37 38 36 35 36 36 37 38 38 39 39 39 39 40 40 40 40 40 40 40 40 41 41 41 42 42 42 42 42 42 42 42 42 42 43 43 43 42 41 42 41 41 41
35 36 37 38 39 40 37 38 38 36 35 36 37 37 38 39 40 40 40 40 40 40 40 40 40 40 40 41 41 42 42 42 42 43 42 42 42 42 42 43 44 44 44 43 42 42 42 42 42
34 35 36 37 39 40 39 39 39 36 36 37 37 38 38 38 39 40 40 39 39 40 40 40 40 40 41 41 41 42 42 42 42 42 42 42 42 42 42 43 44 44 44 43 43 42 42 42 42
33 34 35 36 38 40 39 40 38 37 37 37 37 37 37 37 38 38 38 38 39 39 40 41 41 41 41 40 40 41 41 42 41 41 41 41 42 42 42 42 43 44 44 44 44 43 42 42 43
31 31 33 35 37 38 39 39 37 36 37 37 36 36 36 35 36 37 38 38 38 39 39 40 40 40 40 40 40 40 40 41 40 40 40 40 41 41 42 42 43 44 44 44 44 43 42 42 43
30 30 30 32 34 35 36 37 36 35 36 35 34 34 34 34 34 35 36 37 37 37 38 39 39 39 39 40 40 40 40 39 39 39 39 39 40 40 40 41 42 43 43 43 42 42 42 42 42
29 30 30 31 32 34 36 35 34 35 35 35 34 34 33 33 34 35 35 36 36 37 37 38 38 38 38 38 39 39 39 39 39 39 38 38 38 39 39 38 39 40 40 41 41 41 41 42 42
30 30 30 31 32 33 35 36 34 35 35 35 35 34 34 33 34 35 35 35 35 35 36 36 37 37 36 37 37 37 37 37 37 37 37 37 37 37 38 37 37 37 38 38 39 41 41 41 42
Wind_Direction
246 246 246 244 245 245 248 247 247 248 247 246 249 247 245 246 250 251 251 252 251 251 252 253 254 254 254 255 256 255 256 256 257 256 254 254 254 256 258 259 259 258 258 258 259 258 259 260 261
247 247 247 247 247 247 246 248 250 251 250 249 248 248 249 249 250 250 249 250 252 252 252 253 254 256 255 255 256 256 256 257 258 256 254 254 254 257 259 260 260 259 259 258 259 261 261 261 261
248 246 248 248 248 250 247 249 250 252 252 251 250 250 252 253 253 251 249 250 252 253 253 254 255 256 256 255 254 254 255 257 259 257 255 255 257 259 261 263 263 262 261 259 258 260 261 262 262
247 246 246 247 246 249 248 249 248 252 253 253 253 254 255 254 253 251 250 251 252 253 254 254 255 255 255 256 255 255 257 259 260 259 259 258 259 262 263 265 267 265 263 261 259 259 260 262 262
246 247 248 247 247 248 248 250 251 252 253 252 254 255 257 254 252 251 250 251 253 253 253 253 253 254 256 257 258 259 260 260 260 260 261 261 263 264 265 267 267 266 264 262 260 262 262 262 262
246 248 249 248 249 248 249 250 252 253 254 255 256 256 257 256 253 250 250 250 252 253 254 254 255 255 257 258 258 259 260 260 259 260 262 264 265 266 268 269 268 266 265 262 261 262 263 263 263
246 248 249 249 249 249 250 253 255 255 255 254 256 257 256 256 255 253 253 253 253 254 254 254 255 256 257 258 258 259 260 260 259 260 262 265 267 267 269 269 269 267 265 263 262 263 265 266 264
248 249 249 250 250 250 252 254 254 255 255 255 255 255 255 255 255 254 254 254 254 255 256 256 256 256 256 257 258 259 260 260 261 262 264 265 267 268 269 270 269 267 267 265 264 264 264 266 265
250 250 250 252 253 253 253 254 254 255 255 255 255 255 255 256 256 255 254 253 254 256 258 258 258 258 258 259 260 262 263 263 262 263 265 266 267 268 270 271 270 268 267 267 267 266 264 265 265
250 252 253 254 256 256 255 254 254 255 255 255 255 255 256 257 257 256 254 254 255 256 257 258 259 260 260 260 261 263 264 264 264 264 265 267 268 269 270 270 271 270 268 267 269 267 266 265 265
252 253 254 254 256 257 257 257 256 255 256 257 257 257 257 257 256 256 257 257 257 258 258 259 260 260 261 262 262 264 265 265 266 265 265 266 267 268 268 270 271 271 269 269 270 268 267 266 265
254 254 255 256 258 258 258 259 258 257 257 257 257 257 256 257 257 257 258 258 259 260 260 260 261 261 262 263 263 265 266 266 266 266 266 266 267 267 267 268 270 270 271 271 271 270 268 267 267
255 255 257 258 260 259 259 258 258 257 258 258 259 258 257 258 258 258 259 259 259 260 261 262 262 262 263 263 264 265 266 267 266 266 266 267 267 267 267 268 268 269 270 272 272 270 270 270 269
255 257 258 259 260 259 260 258 257 257 258 258 258 258 258 259 260 260 261 261 262 262 263 264 264 264 264 265 265 265 266 266 266 267 267 267 267 267 267 268 268 269 269 270 271 271 271 270 270
257 257 259 258 259 259 260 258 257 257 258 258 259 259 260 260 260 261 262 263 263 264 265 265 265 265 265 265 265 266 266 267 267 267 268 267 268 268 268 268 269 269 268 269 270 270 270 269 269
258 259 260 259 259 259 258 258 258 258 259 260 260 260 260 261 261 263 264 264 265 266 267 267 266 266 266 267 267 267 266 267 267 267 267 267 267 268 268 269 268 268 268 268 269 270 270 270 270
259 262 262 260 258 257 257 259 259 260 261 261 261 262 262 262 262 263 265 267 267 268 269 269 268 267 267 267 267 268 268 267 267 266 266 267 267 267 267 268 268 268 268 269 269 271 271 270 270
262 264 262 261 259 258 259 260 261 261 261 261 261 262 263 262 263 264 266 267 269 269 270 270 269 268 267 267 267 268 268 268 267 267 267 267 267 267 267 267 267 267 267 268 269 270 271 271 272
261 262 262 261 261 261 261 261 261 261 261 261 262 263 264 265 265 265 266 268 269 270 270 271 270 269 269 268 267 267 267 267 268 268 268 267 267 266 266 266 266 266 267 268 269 270 270 270 271
261 263 262 262 261 262 262 261 261 261 261 262 263 264 264 265 266 266 267 269 270 271 271 271 271 270 269 268 267 267 267 267 268 269 269 268 267 266 266 265 265 265 266 267 268 270 270 270 270
261 263 263 264 263 262 263 262 261 261 262 263 264 265 265 265 266 267 269 270 270 271 272 272 272 271 270 269 268 268 268 268 269 268 268 267 267 267 266 265 264 264 265 266 268 269 269 269 269
262 261 263 263 264 264 264 265 262 262 264 265 265 266 267 267 267 268 269 270 270 271 272 272 273 272 270 269 268 267 267 268 268 268 268 268 267 266 265 265 264 263 264 265 266 268 269 268 269
265 264 263 262 264 264 264 266 265 265 265 266 268 269 269 269 269 269 270 270 270 271 271 273 273 272 271 270 269 268 267 267 268 268 268 267 267 266 264 263 263 263 263 264 265 267 268 268 269
266 266 265 263 263 264 265 268 267 267 268 268 269 270 271 271 270 270 270 270 271 270 271 272 272 271 271 271 270 269 268 267 268 267 266 266 265 265 264 262 261 262 263 263 263 266 267 268 269
268 268 268 266 264 265 266 269 269 272 272 272 272 272 272 273 273 272 271 271 271 271 271 272 273 272 272 272 271 270 268 268 268 267 265 265 264 264 263 262 261 261 261 262 263 265 267 268 269
269 268 267 268 268 267 267 269 271 273 274 274 274 274 273 274 274 274 273 272 272 272 272 273 273 273 272 272 272 270 268 266 266 266 264 264 263 264 264 264 263 262 261 261 262 264 267 268 269
269 268 268 268 270 270 270 271 271 272 274 274 275 275 274 275 275 274 273 273 273 273 274 274 274 272 272 272 271 270 269 267 266 266 264 264 263 264 264 264 264 263 261 260 261 263 266 268 269
270 269 268 266 268 271 271 273 274 274 275 276 275 274 274 273 274 274 274 275 274 275 275 275 274 273 273 273 272 271 270 268 267 266 264 264 264 264 265 266 266 264 262 261 261 262 265 267 268
272 269 267 267 268 270 273 273 275 276 277 277 275 273 274 274 273 273 274 276 276 276 276 276 275 273 272 273 273 271 270 269 267 266 265 266 266 266 266 266 266 265 264 262 262 263 265 266 267
272 270 268 268 270 271 272 274 275 277 278 277 275 273 275 275 275 275 275 276 277 277 276 276 275 274 273 274 273 272 270 268 268 267 267 267 267 267 267 266 266 266 266 264 263 263 265 267 268
Height
5809 5810 5812 5813 5815 5816 5816 5818 5818 5819 5821 5822 5824 5824 5825 5826 5828 5831 5830 5830 5831 5832 5833 5834 5835 5835 5836 5837 5837 5838 5838 5838 5839 5839 5840 5840 5841 5842 5842 5843 5843 5843 5844 5845 5845 5846 5847 5848 5848
5806 5808 5810 5811 5812 5813 5814 5814 5815 5817 5819 5819 5820 5821 5822 5823 5824 5826 5826 5827 5828 5829 5830 5831 5832 5833 5833 5834 5835 5835 5835 5836 5836 5836 5837 5838 5838 5839 5839 5840 5840 5840 5841 5842 5842 5843 5843 5844 5845
5803 5804 5807 5808 5809 5810 5811 5811 5813 5814 5815 5816 5817 5818 5819 5820 5821 5822 5822 5823 5825 5826 5827 5828 5829 5830 5830 5831 5832 5832 5832 5833 5833 5834 5834 5835 5835 5836 5836 5836 5837 5837 5837 5838 5839 5839 5840 5841 5842
5800 5802 5803 5805 5806 5807 5808 5808 5810 5811 5812 5813 5814 5814 5816 5817 5818 5818 5819 5820 5821 5823 5824 5824 5825 5826 5827 5828 5828 5829 5829 5830 5830 5831 5831 5832 5832 5832 5833 5833 5833 5833 5833 5834 5835 5836 5836 5837 5838
5797 5798 5800 5801 5802 5804 5804 5805 5806 5807 5808 5809 5810 5811 5812 5812 5813 5814 5815 5817 5818 5819 5820 5821 5821 5822 5823 5824 5824 5825 5826 5827 5827 5828 5828 5828 5829 5829 5829 5829 5829 5829 5829 5830 5830 5831 5832 5833 5834
5793 5795 5796 5797 5799 5800 5801 5802 5803 5803 5804 5805 5806 5807 5808 5809 5810 5810 5811 5812 5814 5815 5816 5817 5817 5818 5819 5820 5821 5821 5822 5823 5823 5824 5824 5825 5825 5825 5825 5825 5825 5825 5825 5826 5826 5827 5828 5829 5829
5790 5791 5791 5793 5795 5796 5797 5797 5799 5800 5800 5801 5802 5803 5804 5805 5805 5806 5807 5808 5809 5810 5811 5813 5813 5814 5815 5816 5816 5817 5818 5818 5819 5820 5820 5820 5821 5821 5821 5821 5821 5821 5821 5821 5822 5823 5824 5824 5824
5785 5787 5787 5789 5790 5792 5793 5793 5794 5795 5796 5797 5798 5799 5800 5801 5801 5802 5803 5804 5805 5806 5807 5808 5809 5810 5810 5811 5812 5813 5813 5814 5814 5815 5816 5816 5816 5816 5816 5816 5816 5816 5816 5817 5817 5818 5819 5819 5820
5780 5782 5783 5784 5786 5787 5788 5789 5790 5790 5791 5792 5792 5794 5795 5796 5796 5797 5798 5799 5800 5801 5802 5803 5804 5805 5806 5806 5807 5808 5808 5809 5809 5810 5811 5811 5811 5811 5811 5811 5811 5811 5811 5812 5812 5813 5814 5814 5814
5775 5777 5779 5780 5781 5782 5782 5783 5784 5785 5786 5786 5787 5788 5789 5790 5791 5792 5793 5794 5795 5796 5797 5797 5798 5799 5800 5801 5802 5802 5803 5803 5804 5805 5805 5806 5806 5806 5806 5806 5806 5806 5806 5807 5807 5808 5808 5809 5809
5770 5772 5773 5774 5775 5776 5776 5777 5778 5779 5780 5781 5782 5783 5784 5784 5785 5786 5787 5788 5789 5790 5791 5792 5793 5794 5794 5795 5796 5796 5797 5798 5798 5799 5799 5800 5800 5801 5801 5801 5801 5801 5801 5801 5801 5801 5802 5802 5803
5765 5766 5767 5768 5769 5769 5770 5771 5772 5772 5774 5774 5775 5776 5777 5778 5779 5780 5781 5782 5783 5784 5785 5786 5786 5787 5788 5789 5789 5790 5791 5791 5792 5792 5793 5794 5794 5795 5795 5795 5795 5795 5795 5795 5795 5795 5795 5795 5796
5759 5760 5760 5761 5762 5763 5763 5764 5765 5766 5767 5767 5768 5770 5770 5772 5773 5773 5774 5775 5776 5778 5779 5779 5780 5781 5781 5782 5783 5783 5784 5785 5785 5786 5786 5787 5787 5788 5788 5788 5788 5789 5788 5788 5788 5788 5788 5788 5788
5753 5753 5754 5755 5755 5756 5756 5757 5758 5760 5760 5761 5762 5763 5764 5765 5766 5767 5768 5769 5770 5771 5771 5772 5773 5773 5774 5775 5776 5776 5777 5777 5778 5778 5779 5779 5780 5780 5781 5781 5781 5781 5781 5781 5781 5781 5781 5781 5781
5745 5746 5747 5748 5748 5748 5749 5750 5752 5753 5753 5754 5755 5756 5757 5758 5759 5760 5761 5762 5762 5763 5764 5764 5765 5766 5767 5767 5768 5768 5769 5769 5770 5771 5771 5772 5772 5773 5773 5773 5774 5774 5774 5774 5774 5774 5773 5773 5773
5738 5738 5739 5741 5740 5741 5743 5743 5745 5745 5746 5747 5748 5749 5749 5750 5751 5753 5753 5754 5755 5755 5756 5756 5757 5758 5758 5759 5759 5760 5761 5761 5762 5762 5763 5764 5764 5765 5765 5765 5766 5766 5766 5766 5766 5766 5766 5766 5765
5730 5730 5731 5732 5732 5733 5734 5736 5737 5737 5738 5739 5740 5740 5741 5742 5743 5744 5745 5746 5747 5747 5748 5748 5748 5749 5749 5750 5751 5751 5752 5752 5753 5754 5754 5755 5755 5756 5756 5757 5757 5757 5757 5758 5758 5758 5757 5757 5757
5722 5722 5722 5723 5724 5725 5726 5728 5729 5729 5730 5731 5732 5732 5733 5734 5735 5736 5737 5738 5738 5739 5739 5739 5739 5739 5740 5741 5741 5742 5743 5743 5744 5744 5745 5745 5746 5747 5747 5748 5748 5749 5749 5749 5749 5749 5749 5748 5748
5714 5714 5714 5715 5716 5716 5718 5719 5720 5721 5722 5723 5723 5724 5725 5726 5727 5727 5728 5729 5729 5730 5730 5730 5730 5730 5730 5731 5732 5732 5733 5734 5734 5735 5735 5736 5736 5737 5738 5739 5739 5740 5740 5740 5740 5740 5740 5740 5739
5705 5705 5706 5706 5707 5708 5709 5710 5712 5712 5713 5714 5715 5716 5717 5717 5718 5718 5719 5720 5720 5720 5720 5720 5720 5720 5720 5721 5721 5722 5723 5723 5724 5725 5725 5726 5726 5727 5728 5729 5729 5730 5731 5731 5731 5731 5731 5731 5731
5696 5697 5697 5697 5698 5699 5699 5701 5703 5704 5705 5706 5706 5707 5707 5708 5709 5710 5710 5710 5710 5710 5710 5710 5710 5709 5710 5710 5711 5711 5712 5713 5713 5714 5714 5715 5715 5717 5717 5718 5719 5720 5721 5721 5721 5721 5722 5722 5722
5688 5688 5688 5688 5689 5690 5691 5690 5695 5695 5695 5697 5697 5698 5698 5699 5699 5700 5700 5700 5700 5700 5700 5699 5699 5699 5699 5699 5700 5701 5702 5702 5703 5703 5703 5704 5704 5705 5706 5707 5708 5709 5710 5711 5711 5711 5712 5712 5712
5678 5679 5680 5680 5680 5680 5681 5681 5685 5686 5686 5687 5688 5689 5689 5689 5689 5690 5690 5690 5690 5690 5689 5689 5689 5689 5689 5689 5689 5690 5691 5691 5692 5692 5692 5693 5693 5694 5695 5696 5697 5698 5699 5700 5701 5701 5702 5702 5703
5670 5671 5671 5670 5670 5671 5674 5673 5674 5677 5678 5678 5679 5679 5680 5680 5679 5679 5680 5679 5679 5679 5679 5679 5678 5678 5678 5678 5678 5679 5679 5680 5680 5680 5681 5681 5682 5683 5683 5684 5686 5687 5688 5689 5690 5691 5691 5692 5693
5661 5662 5661 5661 5660 5662 5665 5663 5666 5669 5669 5669 5669 5670 5670 5670 5669 5669 5669 5669 5669 5669 5669 5668 5668 5668 5668 5667 5667 5667 5668 5668 5668 5668 5669 5670 5671 5672 5672 5673 5674 5675 5677 5678 5679 5680 5681 5682 5682
5652 5653 5653 5652 5652 5653 5655 5654 5658 5659 5659 5659 5659 5659 5660 5660 5660 5659 5659 5659 5659 5659 5658 5658 5657 5657 5657 5656 5656 5655 5656 5656 5656 5657 5657 5659 5660 5660 5661 5662 5663 5664 5665 5667 5668 5670 5670 5671 5672
5644 5644 5645 5644 5643 5643 5645 5646 5649 5649 5649 5649 5650 5650 5650 5650 5650 5650 5649 5649 5649 5648 5648 5647 5647 5646 5646 5645 5644 5644 5644 5644 5645 5646 5646 5647 5649 5649 5650 5650 5651 5652 5654 5655 5657 5659 5660 5660 5661
5636 5636 5636 5635 5634 5634 5636 5638 5640 5639 5639 5640 5640 5640 5640 5641 5640 5640 5639 5639 5639 5638 5637 5636 5636 5635 5634 5634 5633 5633 5633 5633 5634 5634 5635 5636 5637 5638 5639 5639 5640 5641 5642 5644 5645 5647 5648 5649 5650
5629 5629 5628 5627 5627 5627 5627 5632 5631 5630 5630 5630 5630 5630 5630 5631 5631 5630 5629 5629 5629 5628 5627 5626 5625 5624 5624 5623 5623 5623 5623 5622 5623 5624 5624 5625 5626 5627 5628 5629 5629 5630 5631 5632 5634 5636 5637 5638 5639
5621 5621 5621 5621 5620 5620 5619 5624 5623 5622 5621 5621 5621 5621 5621 5621 5621 5620 5620 5620 5619 5618 5617 5616 5615 5614 5614 5613 5613 5612 5612 5612 5612 5613 5614 5615 5616 5617 5618 5618 5619 5620 5621 5622 5623 5625 5626 5627 5628